Change the Weather History Date:

Sunday, August 25, 2013

  Actual Average Record
Temperature  
Mean Temperature 63 °F -  
Max Temperature 82 °F 77 °F 92 °F (1948)
Min Temperature 44 °F 55 °F 41 °F (1987)
Degree Days  
Heating Degree Days 2    
Growing Degree Days 13 (Base 50)    
Moisture  
Dew Point 48 °F    
Average Humidity 77    
Maximum Humidity 100    
Minimum Humidity 29    
Precipitation  
Precipitation 0.00 in - - ()
Sea Level Pressure  
Sea Level Pressure 30.30 in    
Wind  
Wind Speed 1 mph (SSW)    
Max Wind Speed 9 mph    
Max Gust Speed -    
Visibility 6 miles    
Events Fog    
Averages and records for this station are not official NWS values.
T = Trace of Precipitation, MM = Missing Value Source: NWS Daily Summary

Daily Weather History Graph

Daily Weather History Graph

Search for Another Location

Airport or City:

Trip Planner

Search our weather history database for the weather conditions in past years. The results will help you decide how hot, cold, wet, or windy it might be!

Date:

Astronomy

Aug. 25, 2013 Rise Set
Actual Time 6:02 AM EDT 7:28 PM EDT
Civil Twilight 5:33 AM EDT 7:57 PM EDT
Nautical Twilight 4:58 AM EDT 8:32 PM EDT
Astronomical Twilight 4:21 AM EDT 9:09 PM EDT
Moon 9:51 PM EDT (8/25) 11:07 AM EDT (8/25)
Length of Visible Light 14h 24m
Length of Day
13h 25m
Waning Gibbous, 76% of the Moon is Illuminated
Aug 25
Waning Gibbous
Aug 28
Last Quarter
Sep 5
New
Sep 12
First Quarter
Sep 19
Full

Hourly Weather History & Observations

Time (EDT) Temp. Dew Point Humidity Pressure Visibility Wind Dir Wind Speed Gust Speed Precip Events Conditions
12:52 AM 46.0 °F 44.1 °F 93% 30.34 in 5.0 mi Calm Calm - N/A   Clear
1:52 AM 46.0 °F 45.0 °F 96% 30.33 in 8.0 mi Calm Calm - N/A   Clear
2:52 AM 46.0 °F 44.1 °F 93% 30.32 in 8.0 mi Calm Calm - N/A   Clear
3:42 AM 45.0 °F 44.1 °F 97% 30.31 in 2.5 mi Calm Calm - N/A   Partly Cloudy
3:44 AM 45.0 °F 44.1 °F 97% 30.31 in 1.0 mi Calm Calm - N/A   Mist
3:52 AM 46.0 °F 44.1 °F 93% 30.31 in 0.8 mi Calm Calm - N/A   Mist
3:56 AM 46.0 °F 44.1 °F 93% 30.31 in 1.2 mi Calm Calm - N/A   Partly Cloudy
4:06 AM 45.0 °F 43.0 °F 93% 30.31 in 2.0 mi Calm Calm - N/A   Partly Cloudy
4:13 AM 45.0 °F 44.1 °F 97% 30.31 in 8.0 mi Calm Calm - N/A   Clear
4:25 AM 45.0 °F 43.0 °F 93% 30.31 in 1.5 mi Calm Calm - N/A   Clear
4:28 AM 45.0 °F 44.1 °F 97% 30.31 in 0.8 mi Calm Calm - N/A   Clear
4:46 AM 44.6 °F 44.6 °F 100% 30.31 in 1.5 mi Calm Calm - N/A   Clear
4:52 AM 45.0 °F 44.1 °F 97% 30.32 in 2.0 mi Calm Calm - N/A   Clear
5:10 AM 44.1 °F 43.0 °F 96% 30.32 in 1.2 mi Calm Calm - N/A   Clear
5:25 AM 45.0 °F 43.0 °F 93% 30.32 in 0.5 mi Calm Calm - N/A Fog Fog
5:34 AM 45.0 °F 43.0 °F 93% 30.33 in 1.5 mi Calm Calm - N/A   Clear
5:38 AM 44.1 °F 43.0 °F 96% 30.33 in 3.0 mi Calm Calm - N/A   Clear
5:50 AM 44.6 °F 42.8 °F 93% 30.33 in 1.8 mi Calm Calm - N/A   Clear
5:52 AM 45.0 °F 43.0 °F 93% 30.34 in 1.5 mi Calm Calm - N/A   Clear
5:57 AM 44.1 °F 43.0 °F 96% 30.33 in 0.8 mi Calm Calm - N/A   Clear
6:36 AM 46.0 °F 44.1 °F 93% 30.35 in 1.8 mi Calm Calm - N/A   Clear
6:52 AM 48.9 °F 46.9 °F 93% 30.36 in 2.5 mi Calm Calm - N/A   Clear
6:59 AM 50.0 °F 48.9 °F 96% 30.36 in 9.0 mi Calm Calm - N/A   Clear
7:52 AM 59.0 °F 55.0 °F 87% 30.37 in 10.0 mi Calm Calm - N/A   Clear
8:52 AM 66.0 °F 55.9 °F 70% 30.37 in 10.0 mi Calm Calm - N/A   Clear
9:52 AM 73.0 °F 55.9 °F 55% 30.35 in 10.0 mi Variable 3.5 mph - N/A   Clear
10:52 AM 78.1 °F 55.0 °F 45% 30.35 in 10.0 mi Calm Calm - N/A   Clear
11:52 AM 80.1 °F 48.9 °F 34% 30.33 in 10.0 mi WNW 4.6 mph - N/A   Clear
12:52 PM 81.0 °F 46.0 °F 29% 30.30 in 10.0 mi Calm Calm - N/A   Clear
1:52 PM 82.0 °F 48.0 °F 30% 30.29 in 10.0 mi Variable 4.6 mph - N/A   Clear
2:52 PM 82.0 °F 48.9 °F 31% 30.27 in 10.0 mi WSW 5.8 mph - N/A   Clear
3:52 PM 82.0 °F 52.0 °F 35% 30.27 in 10.0 mi SW 8.1 mph - N/A   Clear
4:52 PM 79.0 °F 53.1 °F 40% 30.25 in 10.0 mi SW 9.2 mph - N/A   Clear
5:52 PM 77.0 °F 53.1 °F 43% 30.25 in 10.0 mi SSW 6.9 mph - N/A   Clear
6:52 PM 73.0 °F 54.0 °F 51% 30.22 in 10.0 mi South 5.8 mph - N/A   Clear
7:52 PM 69.1 °F 55.9 °F 63% 30.22 in 10.0 mi South 5.8 mph - N/A   Clear
8:52 PM 66.0 °F 55.0 °F 68% 30.23 in 10.0 mi SSW 4.6 mph - N/A   Clear
9:52 PM 66.9 °F 55.0 °F 66% 30.22 in 10.0 mi SSW 3.5 mph - N/A   Clear
10:52 PM 59.0 °F 55.0 °F 87% 30.22 in 10.0 mi SSE 3.5 mph - N/A   Clear
11:52 PM 61.0 °F 55.0 °F 81% 30.21 in 10.0 mi South 4.6 mph - N/A   Clear